Pipestone, MN

7:03 AM CST on February 26, 2017 (GMT -0600)
Pipestone Municipal

Weather History for KPQN - August, 2014

Change the Weather History Date:

Monday, August 11, 2014

  Actual Average Record
Temperature  
Mean Temperature 64 °F -  
Max Temperature 73 °F 76 °F 91 °F (2007)
Min Temperature 55 °F 56 °F 48 °F (2004)
Degree Days  
Heating Degree Days 1    
Growing Degree Days 14 (Base 50)    
Moisture  
Dew Point 53 °F    
Average Humidity 68    
Maximum Humidity 94    
Minimum Humidity 41    
Precipitation  
Precipitation 0.00 in - - ()
Sea Level Pressure  
Sea Level Pressure 30.14 in    
Wind  
Wind Speed 9 mph (North)    
Max Wind Speed 17 mph    
Max Gust Speed 32 mph    
Visibility 10 miles    
Events      
Averages and records for this station are not official NWS values.
T = Trace of Precipitation, MM = Missing Value Source: NWS Daily Summary

Daily Weather History Graph

Daily Weather History Graph

Search for Another Location

Airport or City:

Trip Planner

Search our weather history database for the weather conditions in past years. The results will help you decide how hot, cold, wet, or windy it might be!

Date:

Astronomy

Aug. 11, 2014 Rise Set
Actual Time 6:24 AM CDT 8:35 PM CDT
Civil Twilight 5:52 AM CDT 9:06 PM CDT
Nautical Twilight 5:13 AM CDT 9:45 PM CDT
Astronomical Twilight 4:30 AM CDT 10:29 PM CDT
Moon 8:59 PM CDT (8/11) 7:35 AM CDT (8/11)
Length of Visible Light 15h 14m
Length of Day
14h 10m
Full, 99% of the Moon is Illuminated
Aug 11
Full
Aug 17
Last Quarter
Aug 25
New
Sep 2
First Quarter
Sep 8
Full

Hourly Weather History & Observations

Time (CDT) Temp. Dew Point Humidity Pressure Visibility Wind Dir Wind Speed Gust Speed Precip Events Conditions
12:14 AM 64.4 °F 60.8 °F 88% 30.11 in 10.0 mi NNW 5.8 mph - N/A   Clear
12:34 AM 64.4 °F 59.0 °F 83% 30.11 in 10.0 mi NNW 9.2 mph - N/A   Clear
12:54 AM 64.4 °F 59.0 °F 83% 30.11 in 10.0 mi NNW 9.2 mph - N/A   Clear
1:14 AM 62.6 °F 57.2 °F 82% 30.11 in 10.0 mi North 8.1 mph - N/A   Clear
1:34 AM 62.6 °F 55.4 °F 77% 30.11 in 10.0 mi North 8.1 mph - N/A   Clear
1:54 AM 60.8 °F 55.4 °F 82% 30.12 in 10.0 mi NNW 8.1 mph - N/A   Clear
2:14 AM 60.8 °F 53.6 °F 77% 30.11 in 10.0 mi NNW 6.9 mph - N/A   Clear
2:34 AM 60.8 °F 53.6 °F 77% 30.11 in 10.0 mi NNW 8.1 mph - N/A   Clear
2:54 AM 59.0 °F 53.6 °F 82% 30.11 in 10.0 mi NNW 6.9 mph - N/A   Clear
3:15 AM 59.0 °F 53.6 °F 82% 30.11 in 10.0 mi NW 5.8 mph - N/A   Clear
3:34 AM 57.2 °F 53.6 °F 88% 30.11 in 10.0 mi NNW 6.9 mph - N/A   Clear
3:54 AM 57.2 °F 53.6 °F 88% 30.11 in 10.0 mi NW 4.6 mph - N/A   Clear
4:14 AM 55.4 °F 53.6 °F 94% 30.11 in 10.0 mi NW 4.6 mph - N/A   Clear
4:34 AM 55.4 °F 53.6 °F 94% 30.11 in 10.0 mi NW 5.8 mph - N/A   Clear
4:54 AM 55.4 °F 51.8 °F 88% 30.11 in 10.0 mi NW 6.9 mph - N/A   Clear
5:14 AM 55.4 °F 51.8 °F 88% 30.10 in 10.0 mi NW 6.9 mph - N/A   Clear
5:34 AM 55.4 °F 51.8 °F 88% 30.11 in 10.0 mi NNW 10.4 mph - N/A   Clear
5:54 AM 55.4 °F 51.8 °F 88% 30.11 in 10.0 mi NNW 10.4 mph - N/A   Clear
6:14 AM 55.4 °F 51.8 °F 88% 30.11 in 10.0 mi NNW 9.2 mph - N/A   Clear
6:34 AM 55.4 °F 51.8 °F 88% 30.11 in 10.0 mi NNW 9.2 mph - N/A   Clear
6:54 AM 55.4 °F 51.8 °F 88% 30.12 in 10.0 mi NW 10.4 mph - N/A   Clear
7:14 AM 55.4 °F 51.8 °F 88% 30.12 in 10.0 mi NNW 10.4 mph - N/A   Clear
7:34 AM 55.4 °F 51.8 °F 88% 30.13 in 10.0 mi NNW 10.4 mph - N/A   Clear
7:55 AM 57.2 °F 51.8 °F 82% 30.13 in 10.0 mi NNW 11.5 mph - N/A   Clear
8:14 AM 57.2 °F 53.6 °F 88% 30.14 in 10.0 mi NNW 9.2 mph - N/A   Clear
8:34 AM 60.8 °F 53.6 °F 77% 30.14 in 10.0 mi NNW 9.2 mph 17.3 mph N/A   Clear
8:54 AM 60.8 °F 53.6 °F 77% 30.14 in 10.0 mi North 9.2 mph 17.3 mph N/A   Clear
9:14 AM 62.6 °F 53.6 °F 72% 30.14 in 10.0 mi North 13.8 mph 19.6 mph N/A   Clear
9:34 AM 62.6 °F 53.6 °F 72% 30.14 in 10.0 mi North 12.7 mph 19.6 mph N/A   Clear
9:54 AM 64.4 °F 53.6 °F 68% 30.15 in 10.0 mi North 12.7 mph 20.7 mph N/A   Clear
10:14 AM 64.4 °F 55.4 °F 73% 30.15 in 10.0 mi NNW 11.5 mph 18.4 mph N/A   Clear
10:34 AM 68.0 °F 53.6 °F 60% 30.16 in 10.0 mi North 15.0 mph 25.3 mph N/A   Clear
10:54 AM 69.8 °F 53.6 °F 56% 30.16 in 10.0 mi North 15.0 mph 23.0 mph N/A   Clear
11:14 AM 69.8 °F 53.6 °F 56% 30.16 in 10.0 mi NNE 17.3 mph 23.0 mph N/A   Clear
11:34 AM 69.8 °F 53.6 °F 56% 30.16 in 10.0 mi North 16.1 mph 26.5 mph N/A   Clear
11:54 AM 69.8 °F 53.6 °F 56% 30.17 in 10.0 mi North 15.0 mph 21.9 mph N/A   Clear
12:14 PM 71.6 °F 53.6 °F 53% 30.17 in 10.0 mi North 12.7 mph 20.7 mph N/A   Clear
12:34 PM 71.6 °F 53.6 °F 53% 30.16 in 10.0 mi North 12.7 mph 24.2 mph N/A   Clear
12:54 PM 71.6 °F 51.8 °F 50% 30.17 in 10.0 mi North 17.3 mph 32.2 mph N/A   Scattered Clouds
1:14 PM 71.6 °F 53.6 °F 53% 30.16 in 10.0 mi North 12.7 mph 20.7 mph N/A   Scattered Clouds
1:34 PM 71.6 °F 53.6 °F 53% 30.17 in 10.0 mi North 10.4 mph 23.0 mph N/A   Scattered Clouds
1:54 PM 71.6 °F 53.6 °F 53% 30.17 in 10.0 mi North 13.8 mph 24.2 mph N/A   Scattered Clouds
2:14 PM 71.6 °F 51.8 °F 50% 30.16 in 10.0 mi North 15.0 mph 19.6 mph N/A   Scattered Clouds
2:34 PM 73.4 °F 51.8 °F 47% 30.16 in 10.0 mi North 12.7 mph 20.7 mph N/A   Clear
2:54 PM 71.6 °F 50.0 °F 46% 30.16 in 10.0 mi North 13.8 mph 21.9 mph N/A   Scattered Clouds
3:14 PM 73.4 °F 51.8 °F 47% 30.16 in 10.0 mi North 12.7 mph 27.6 mph N/A   Scattered Clouds
3:34 PM 73.4 °F 51.8 °F 47% 30.16 in 10.0 mi North 15.0 mph 25.3 mph N/A   Clear
3:54 PM 73.4 °F 51.8 °F 47% 30.16 in 10.0 mi North 11.5 mph 24.2 mph N/A   Clear
4:14 PM 73.4 °F 51.8 °F 47% 30.15 in 10.0 mi North 11.5 mph 19.6 mph N/A   Scattered Clouds
4:34 PM 73.4 °F 51.8 °F 47% 30.15 in 10.0 mi North 10.4 mph 20.7 mph N/A   Scattered Clouds
4:54 PM 73.4 °F 48.2 °F 41% 30.15 in 10.0 mi North 13.8 mph 26.5 mph N/A   Scattered Clouds
5:34 PM 71.6 °F 48.2 °F 43% 30.15 in 10.0 mi North 9.2 mph - N/A   Clear
5:55 PM 71.6 °F 50.0 °F 46% 30.15 in 10.0 mi North 9.2 mph 17.3 mph N/A   Scattered Clouds
6:14 PM 71.6 °F 50.0 °F 46% 30.15 in 10.0 mi North 11.5 mph 17.3 mph N/A   Clear
6:34 PM 71.6 °F 51.8 °F 50% 30.15 in 10.0 mi NNE 11.5 mph 20.7 mph N/A   Clear
6:54 PM 69.8 °F 51.8 °F 53% 30.15 in 10.0 mi North 8.1 mph 17.3 mph N/A   Clear
7:14 PM 69.8 °F 51.8 °F 53% 30.14 in 10.0 mi North 11.5 mph - N/A   Clear
7:34 PM 69.8 °F 51.8 °F 53% 30.14 in 10.0 mi North 9.2 mph - N/A   Clear
7:54 PM 66.2 °F 51.8 °F 60% 30.14 in 10.0 mi North 5.8 mph - N/A   Clear
8:12 PM 66.2 °F 51.8 °F 60% 30.14 in 10.0 mi North 4.6 mph - N/A   Clear
8:34 PM 64.4 °F 51.8 °F 64% 30.15 in 10.0 mi North 4.6 mph - N/A   Clear
8:54 PM 62.6 °F 51.8 °F 68% 30.15 in 10.0 mi North 3.5 mph - N/A   Clear
9:14 PM 62.6 °F 51.8 °F 68% 30.15 in 10.0 mi North 3.5 mph - N/A   Clear
9:34 PM 60.8 °F 51.8 °F 72% 30.16 in 10.0 mi North 3.5 mph - N/A   Clear
9:54 PM 60.8 °F 51.8 °F 72% 30.16 in 10.0 mi North 4.6 mph - N/A   Clear
10:14 PM 60.8 °F 51.8 °F 72% 30.16 in 10.0 mi North 3.5 mph - N/A   Clear
10:34 PM 60.8 °F 51.8 °F 72% 30.16 in 10.0 mi North 4.6 mph - N/A   Clear
10:54 PM 60.8 °F 51.8 °F 72% 30.16 in 10.0 mi North 3.5 mph - N/A   Clear
11:14 PM 59.0 °F 50.0 °F 72% 30.16 in 10.0 mi North 4.6 mph - N/A   Clear
11:34 PM 59.0 °F 50.0 °F 72% 30.16 in 10.0 mi North 3.5 mph - N/A   Clear
11:54 PM 57.2 °F 50.0 °F 77% 30.15 in 10.0 mi North 3.5 mph - N/A   Clear